GW3897 Weather Reports


time (UTC)temp
C
wind
direction
speed
KPH
gust
KPH
rain 1hr
cm
rain 24hr
cm
rain mn
cm
humidity
%
barometer
mb
20260503033107 13 344 0.0 9.7 0.00 0.00 0.00 39 1006.8
20260503031558 12 192 4.8 6.4 0.00 0.00 0.00 42 1006.7
20260503030057 12 192 0.0 4.8 0.00 0.00 0.00 44 1006.4
20260503024557 13 192 0.0 0.0 0.00 0.00 0.00 39 1006.2
20260503023105 13 192 0.0 0.0 0.00 0.00 0.00 40 1006.1
20260503021556 13 193 0.0 0.0 0.00 0.00 0.00 39 1006.1
20260503020056 14 192 0.0 0.0 0.00 0.00 0.00 37 1006.0
20260503014559 15 193 0.0 1.6 0.00 0.00 0.00 36 1005.9
20260503013054 16 193 0.0 1.6 0.00 0.00 0.00 32 1006.0
20260503011554 17 192 0.0 1.6 0.00 0.00 0.00 31 1006.1
20260503010053 16 192 0.0 8.0 0.00 0.00 0.00 31 1006.1
20260503004550 16 192 0.0 4.8 0.00 0.00 0.00 33 1006.3
20260503003051 17 193 0.0 4.8 0.00 0.00 0.00 31 1006.4
20260503001549 17 192 0.0 6.4 0.00 0.00 0.00 31 1006.6
20260503000050 17 192 0.0 3.2 0.00 0.00 0.00 31 1006.7
20260502234556 17 195 3.2 8.0 0.00 0.00 0.00 30 1006.7
20260502233048 17 297 3.2 16.1 0.00 0.00 0.00 27 1006.7
20260502231557 18 24 4.8 11.3 0.00 0.00 0.00 28 1006.8
20260502230045 18 248 3.2 9.7 0.00 0.00 0.00 29 1007.0
20260502224544 17 248 6.4 17.7 0.00 0.00 0.00 29 1007.1
20260502223042 17 245 3.2 6.4 0.00 0.00 0.00 30 1007.3
20260502221541 17 245 1.6 6.4 0.00 0.00 0.00 31 1007.7
20260502220041 16 245 1.6 6.4 0.00 0.00 0.00 32 1007.8
20260502214544 17 248 3.2 14.5 0.00 0.00 0.00 31 1008.0
20260502213037 17 242 6.4 12.9 0.00 0.00 0.00 31 1008.2
20260502211538 16 180 1.6 6.4 0.00 0.00 0.00 33 1008.4
20260502210039 16 180 1.6 11.3 0.00 0.00 0.00 34 1008.6
20260502204536 16 180 1.6 4.8 0.00 0.00 0.00 34 1008.5
20260502203035 16 246 6.4 12.9 0.00 0.00 0.00 34 1008.6
20260502201535 16 237 6.4 16.1 0.00 0.00 0.00 35 1008.7
20260502200034 15 180 8.0 14.5 0.00 0.00 0.00 37 1008.9
20260502194531 15 166 8.0 12.9 0.00 0.00 0.00 37 1009.1
20260502193031 15 180 0.0 24.1 0.00 0.00 0.00 38 1009.3
20260502191530 15 49 6.4 11.3 0.00 0.00 0.00 38 1009.6
20260502190032 15 180 0.0 8.0 0.00 0.00 0.00 36 1009.6
20260502184529 15 35 4.8 9.7 0.00 0.00 0.00 36 1009.6
20260502183029 15 180 4.8 12.9 0.00 0.00 0.00 36 1009.7
20260502181532 15 72 6.4 11.3 0.00 0.00 0.00 35 1009.7
20260502163028 15 180 6.4 12.9 0.00 0.00 0.00 40 1009.8
20260502161524 14 180 0.0 8.0 0.00 0.00 0.00 39 1009.9
20260502151519 15 180 6.4 16.1 0.00 0.00 0.00 38 1009.9
20260502140107 12 127 1.6 12.9 0.00 0.00 0.00 43 1009.7
20260502123100 8 180 4.8 11.3 0.00 0.00 0.00 51 1009.2
20260502121557 8 180 4.8 14.5 0.00 0.00 0.00 51 1009.1
20260502114553 8 180 6.4 19.3 0.00 0.00 0.00 50 1008.7
20260502113052 8 180 8.0 19.3 0.00 0.00 0.00 49 1008.7
20260502111604 9 180 9.7 20.9 0.00 0.00 0.00 47 1008.5
20260502110048 9 143 6.4 17.7 0.00 0.00 0.00 46 1008.2
20260502104545 9 180 11.3 17.7 0.00 0.00 0.00 45 1007.9
20260502103059 10 180 11.3 19.3 0.00 0.00 0.00 43 1007.8
20260502101541 10 135 9.7 20.9 0.00 0.00 0.00 42 1007.6
20260502071518 8 15 8.0 12.9 0.00 0.00 0.00 39 1006.5
20260502070022 8 180 1.6 6.4 0.00 0.00 0.00 40 1006.5
20260502064515 9 180 1.6 9.7 0.00 0.00 0.00 38 1006.4
20260502063021 10 180 6.4 9.7 0.00 0.00 0.00 36 1006.4
20260502061510 10 180 6.4 9.7 0.00 0.00 0.00 37 1006.4
20260502060008 10 180 6.4 12.9 0.00 0.00 0.00 35 1006.4
20260502054511 10 180 8.0 12.9 0.00 0.00 0.00 34 1006.4
20260502053007 10 39 6.4 11.3 0.00 0.00 0.00 32 1006.4
20260502051505 12 10 11.3 16.1 0.00 0.00 0.00 28 1006.4
20260502050008 11 180 12.9 17.7 0.00 0.00 0.00 28 1006.3
20260502044505 12 13 12.9 17.7 0.00 0.00 0.00 27 1006.3
20260502043005 11 34 11.3 16.1 0.00 0.00 0.00 27 1006.3
20260502041504 12 14 11.3 17.7 0.00 0.00 0.00 25 1006.2
20260502040008 12 17 11.3 17.7 0.00 0.00 0.00 24 1006.2
20260502034503 13 5 12.9 17.7 0.00 0.00 0.00 23 1006.1